This demonstration page uses our WeatherBlox Daily Observations layout. Learn more.

Left ArrowRight Arrow

Hourly Observations for August 12, 2018

Temp ( °F °C ) Dew Point ( °F °C ) Humidity (%) Winds ( mph kmh ) Pressure ( in mb ) Visibility ( mi km ) Precip ( " mm )
12:15 am 00:15 Mostly Cloudy with Mist and Fog 62 16.6 62 16.6 100 100 Calm 30.06 1018 1 2 0.00 0.00
12:35 am 00:35 Mostly Cloudy with Mist and Fog 62 16.6 62 16.6 100 100 Calm 30.06 1018 1 2 0.00 0.00
12:55 am 00:55 Clear with Mist and Fog 60 15.8 60 15.8 100 100 Calm 30.06 1018 4 6 0.00 0.00
1:15 am 01:15 Clear with Mist and Fog 60 15.6 60 15.6 100 100 Calm 30.06 1018 5 8 0.00 0.00
1:35 am 01:35 Clear with Mist and Fog 61 15.9 61 15.9 100 100 Calm 30.06 1018 5 8 0.00 0.00
2:00 am 02:00 Clear with Mist and Fog 60 15.6 60 15.6 100 100 Calm 30.06 1018 4 6 0.00 0.00
2:15 am 02:15 Clear with Mist and Fog 60 15.5 60 15.5 100 100 Calm 30.06 1018 4 6 0.00 0.00
2:35 am 02:35 Clear with Mist and Fog 60 15.3 60 15.3 100 100 Calm 30.06 1018 3 5 0.00 0.00
2:55 am 02:55 Clear 59 15.2 59 15.2 100 100 Calm 30.06 1018 7 11 0.00 0.00
3:15 am 03:15 Clear with Mist and Fog 59 15 59 15 100 100 Calm 30.06 1018 4 6 0.00 0.00
3:35 am 03:35 Clear with Mist and Fog 59 15.1 59 15.1 100 100 Calm 30.06 1018 4 6 0.00 0.00
3:55 am 03:55 Clear with Mist and Fog 59 14.9 59 14.9 100 100 Calm 30.06 1018 3 5 0.00 0.00
4:15 am 04:15 Clear with Mist and Fog 59 15.1 59 15.1 100 100 Calm 30.06 1018 4 6 0.00 0.00
4:35 am 04:35 Clear with Mist and Fog 59 15.1 59 15.1 100 100 Calm 30.06 1018 5 8 0.00 0.00
4:55 am 04:55 Clear with Mist and Fog 59 15 59 15 100 100 Calm 30.06 1018 5 8 0.00 0.00
5:15 am 05:15 Clear with Mist and Fog 59 15.1 59 15.1 100 100 Calm 30.06 1018 5 8 0.00 0.00
5:35 am 05:35 Clear with Mist and Fog 58 14.6 58 14.6 100 100 Calm 30.06 1018 5 8 0.00 0.00
5:55 am 05:55 Clear with Mist and Fog 59 14.8 59 14.8 100 100 Calm 30.06 1018 5 8 0.00 0.00
6:15 am 06:15 Clear 58 14.7 58 14.7 100 100 Calm 30.06 1018 7 11 0.00 0.00
6:35 am 06:35 Clear 59 14.8 59 14.8 100 100 Calm 30.06 1018 7 11 0.00 0.00
6:55 am 06:55 Sunny with Mist and Fog 58 14.7 58 14.7 100 100 Calm 30.06 1018 5 8 0.00 0.00
7:15 am 07:15 Sunny with Mist and Fog 59 14.9 59 14.9 100 100 Calm 30.06 1018 4 6 0.00 0.00
7:35 am 07:35 Sunny with Mist and Fog 59 14.9 59 14.9 100 100 Calm 30.09 1019 5 8 0.00 0.00
7:55 am 07:55 Sunny with Mist and Fog 62 16.4 62 16.4 100 100 Calm 30.09 1019 5 8 0.00 0.00
8:15 am 08:15 Sunny 64 17.8 64 17.8 100 100 Calm 30.09 1019 7 11 0.00 0.00
8:35 am 08:35 Sunny 66 19 66 18.8 99 99 NNW 3 6 30.09 1019 10 16 0.00 0.00
8:55 am 08:55 Sunny 68 20.1 67 19.2 95 95 NNW 3 6 30.09 1019 10 16 0.00 0.00
9:15 am 09:15 Sunny 70 21.2 67 19.5 90 90 NNW 5 7 30.09 1019 10 16 0.00 0.00
9:35 am 09:35 Sunny 72 22 68 20 88 88 N 5 7 30.12 1020 10 16 0.00 0.00
9:55 am 09:55 Partly Cloudy 73 23 69 20.4 85 85 Calm 30.09 1019 10 16 0.00 0.00
10:15 am 10:15 Partly Cloudy 74 23.5 69 20.4 83 83 N 5 7 30.09 1019 10 16 0.00 0.00
10:35 am 10:35 Partly Cloudy 76 24.2 70 21 82 82 N 5 7 30.09 1019 10 16 0.00 0.00
10:55 am 10:55 Sunny 76 24.4 69 20.5 79 79 N 6 9 30.09 1019 10 16 0.00 0.00
11:15 am 11:15 Sunny 77 24.9 68 20.2 75 75 NNE 5 7 30.09 1019 10 16 0.00 0.00
11:35 am 11:35 Sunny 77 25.2 67 19.6 71 71 NNW 5 7 30.09 1019 10 16 0.00 0.00
11:55 am 11:55 Partly Cloudy 78 25.4 67 19.7 71 71 NNE 6 9 30.09 1019 10 16 0.00 0.00
12:15 pm 12:15 Sunny 78 25.7 66 19.1 67 67 N 5 7 30.09 1019 10 16 0.00 0.00
12:35 pm 12:35 Sunny 79 26.1 66 18.9 65 65 WNW 6 9 30.09 1019 10 16 0.00 0.00
12:55 pm 12:55 Sunny 79 26.3 66 18.8 63 63 NW 5 7 30.09 1019 10 16 0.00 0.00
1:15 pm 13:15 Sunny 80 26.6 65 18.3 60 60 NW 8 13 30.09 1019 10 16 0.00 0.00
1:35 pm 13:35 Sunny 80 26.5 65 18.5 62 62 NNW 8 13 30.09 1019 10 16 0.00 0.00
1:55 pm 13:55 Sunny 80 26.9 66 19 62 62 NNW 9 15 30.06 1018 10 16 0.00 0.00
2:15 pm 14:15 Sunny 81 27.1 66 18.8 61 61 NW 7 11 30.06 1018 10 16 0.00 0.00
2:35 pm 14:35 Sunny 81 27.1 66 19 61 61 NW 8 13 30.06 1018 10 16 0.00 0.00
2:55 pm 14:55 Partly Cloudy 81 27.1 67 19.6 64 64 N 7 11 30.06 1018 10 16 0.00 0.00
3:15 pm 15:15 Partly Cloudy 81 27.2 67 19.5 63 63 NNW 9 15 30.06 1018 10 16 0.00 0.00
3:35 pm 15:35 Partly Cloudy 82 27.5 67 19.5 62 62 NNE 8 13 30.06 1018 10 16 0.00 0.00
3:55 pm 15:55 Partly Cloudy 80 26.7 67 19.3 64 64 NNW 8 13 30.03 1017 10 16 0.00 0.00
4:15 pm 16:15 Partly Cloudy 82 27.5 67 19.2 61 61 NNW 5 7 30.03 1017 10 16 0.00 0.00
4:35 pm 16:35 Partly Cloudy 82 27.5 66 18.8 59 59 N 6 9 30.03 1017 10 16 0.00 0.00
4:55 pm 16:55 Sunny 82 27.5 67 19.2 61 61 NNW 8 13 30.03 1017 10 16 0.00 0.00
5:15 pm 17:15 Sunny 81 27.3 67 19.7 63 63 N 7 11 30.03 1017 10 16 0.00 0.00
5:35 pm 17:35 Sunny 81 27.2 64 17.8 57 57 NW 7 11 30.03 1017 10 16 0.00 0.00
5:55 pm 17:55 Sunny 80 26.9 66 18.7 61 61 N 6 9 30.03 1017 10 16 0.00 0.00
6:15 pm 18:15 Sunny 80 26.6 65 18.4 61 61 NNW 6 9 30.03 1017 10 16 0.00 0.00
6:35 pm 18:35 Sunny 80 26.6 65 18.5 61 61 N 6 9 30.03 1017 10 16 0.00 0.00
6:55 pm 18:55 Sunny 80 26.5 66 18.8 63 63 NNW 3 6 30.03 1017 10 16 0.00 0.00
7:15 pm 19:15 Sunny 78 25.7 66 19.1 67 67 N 6 9 30.03 1017 10 16 0.00 0.00
7:35 pm 19:35 Sunny 77 25.2 68 20.1 73 73 N 5 7 30.03 1017 10 16 0.00 0.00
7:55 pm 19:55 Sunny 76 24.2 68 20.1 78 78 N 5 7 30.03 1017 10 16 0.00 0.00
8:15 pm 20:15 Sunny 74 23.6 68 20.2 81 81 Calm 30.03 1017 10 16 0.00 0.00
8:35 pm 20:35 Sunny 71 21.8 68 20.2 91 91 N 3 6 30.03 1017 10 16 0.00 0.00
8:55 pm 20:55 Clear 69 20.8 67 19.6 93 93 Calm 30.06 1018 10 16 0.00 0.00
9:15 pm 21:15 Clear 68 19.8 66 19.1 96 96 NNE 3 6 30.06 1018 10 16 0.00 0.00
9:35 pm 21:35 Clear 67 19.4 66 18.9 97 97 NE 5 7 30.06 1018 10 16 0.00 0.00
9:55 pm 21:55 Clear 67 19.2 65 18.6 96 96 Calm 30.06 1018 10 16 0.00 0.00
10:15 pm 22:15 Clear 68 19.8 65 18.2 91 91 Calm 30.06 1018 10 16 0.00 0.00
10:35 pm 22:35 Clear 67 19.4 65 18.1 92 92 Calm 30.09 1019 10 16 0.00 0.00
10:55 pm 22:55 Clear 65 18.5 64 18 97 97 Calm 30.09 1019 10 16 0.00 0.00
11:15 pm 23:15 Clear 65 18.4 64 18 98 98 Calm 30.09 1019 10 16 0.00 0.00
11:35 pm 23:35 Clear 64 18 64 17.8 99 99 Calm 30.09 1019 10 16 0.00 0.00
11:55 pm 23:55 Clear 64 17.5 64 17.5 100 100 Calm 30.09 1019 10 16 0.00 0.00

Powered by AerisWeather